Regional Weather Roundup
Issued by NWS Sterling, VA

Home | Current Version | Previous Version | Graphics & Text | Print | Product List | Glossary On
Versions: 1 2 3 4 5 6 7 8 9 10 11 12 13 14 15 16 17 18 19 20 21 22 23 24 25 26 27 28 29 30 31 32 33 34 35 36 37 38 39 40 41 42 43 44 45 46 47 48 49 50
554
ASUS41 KLWX 251411
RWRLWX

REGIONAL WEATHER ROUNDUP
NATIONAL WEATHER SERVICE BALTIMORE MD/WASHINGTON DC
1000 AM EDT TUE APR 25 2017

Note: "FAIR" indicates few or no clouds below 12,000 feet
with no significant weather and/or obstructions to visibility.
 TC=TEMPERATURE CELSIUS

 * =Non NWS site. Station does not report precipitation (e.g. rain,
    snow, etc.), thunder, or fog.

DCZ001-MDZ009-015-VAZ040>042-051-053>054-251500-
WASHINGTON METRO

CITY           SKY/WX    TMP DP  RH WIND       PRES   REMARKS
WASHINGTON NAT LGT RAIN  58  56  93 NE23G31   29.85F
DULLES         CLOUDY    56  54  93 NE10      29.87F FOG
ANDREWS AFB    LGT RAIN  56  55  97 NE16G28   29.83F FOG
FT BELVOIR     LGT RAIN  57  55  94 NE9       29.82F
QUANTICO       LGT RAIN  59  58  96 NE20G31   29.81F FOG
COLLEGE PARK*  CLOUDY    56  53  89 NE10G24   29.86F
LEESBURG*      CLOUDY    54  54 100 N12       29.90F
MANASSAS*      LGT RAIN  56  55  97 N13       29.84F FOG

$$

MDZ006>007-011-014-251500-
BALTIMORE METRO

CITY           SKY/WX    TMP DP  RH WIND       PRES   REMARKS
BWI AIRPORT    LGT RAIN  56  55  97 NE20G28   29.89F
MD SCIENCE CTR   N/A     58  51  78 MISG      29.91F
MARTIN STATE   CLOUDY    57  55  94 NE12      29.93F
ANNAPOLIS      CLOUDY    57  55  93 NE12G24   29.88F
FORT MEADE*    CLOUDY    55  52  88 NE8G22    29.90F

$$

MDZ012-015-019>023-251500-
MARYLAND EASTERN SHORE

CITY           SKY/WX    TMP DP  RH WIND       PRES   REMARKS
OCEAN CITY     HVY RAIN  57  57 100 E18G29    29.80F FOG
SALISBURY      RAIN      59  59 100 NE15      29.79F FOG
BAY BRIDGE AP* CLOUDY    55  54  94 NE13G20   29.88S FOG
CAMBRIDGE*     MOSUNNY   59  57  94 NE15G21   29.81F FOG
EASTON*        CLOUDY    59  55  88 E18G24    29.89S

$$

MDZ017>025-251500-
SOUTHERN MARYLAND

CITY           SKY/WX    TMP DP  RH WIND       PRES   REMARKS
PATUXENT RIVER CLOUDY    60  60 100 NE23G30   29.76F
ST INIGOES     LGT RAIN  60  58  92 NE18G26   29.74F
LEONARDTOWN*   CLOUDY    59  55  88 NE8G18    29.78F

$$

MDZ003>005-251500-
NORTH CENTRAL MARYLAND

CITY           SKY/WX    TMP DP  RH WIND       PRES   REMARKS
FREDERICK*     CLOUDY    57  57 100 N10       29.94F FOG
HAGERSTOWN APT CLOUDY    55  52  89 NE13      29.93S
WESTMINSTER*   CLOUDY    55  54  94 NE9G21    29.92F

$$

MDZ501>502-251500-
WESTERN MARYLAND

CITY           SKY/WX    TMP DP  RH WIND       PRES   REMARKS
OAKLAND*       FOG       45  45 100 E10G17    29.90F VSB<1/4
CUMBERLAND*    CLOUDY    54  50  87 NE8G16    29.97F

$$

VAZ025>031-251500-
SHENANDOAH VALLEY

CITY           SKY/WX    TMP DP  RH WIND       PRES   REMARKS
WINCHESTER*    LGT RAIN  48  46  93 N5        29.90F
FRONT ROYAL*   CLOUDY    50  50 100 NE5       29.89S
LURAY*         DRIZZLE   50  50 100 N13G22    29.86F
NEW MARKET*    CLOUDY    50  48  93 N10G20    29.87F
STAUNTON*      RAIN      50  49  96 NE13      29.86S
WAYNESBORO*    CLOUDY    49  49 100 N10       29.83S

$$

WVZ021-048>050-054>055-251500-
EASTERN WEST VIRGINIA PANHANDLE

CITY           SKY/WX    TMP DP  RH WIND       PRES   REMARKS
MARTINSBURG    LGT RAIN  52  48  86 N12       29.91F FOG
PETERSBURG*    DRIZZLE   51  49  94 N3        29.93F

$$

VAZ036>039-050-251500-
CENTRAL FOOTHILLS

CITY           SKY/WX    TMP DP  RH WIND       PRES   REMARKS
CHARLOTTESVILL LGT RAIN  56  54  93 NE12G21   29.79F FOG
CULPEPER*      RAIN      55  55  98 N12G20    29.83F
ORANGE*        LGT RAIN  52  52 100 NE14G22   29.80F
GORDONSVILLE*  CLOUDY    54  53  97 N10G22    29.78F FOG
WARRENTON*     LGT RAIN  55  51  89 N10G17    29.82F

$$

VAZ055>057-251500-
NORTH AND CENTRAL PIEDMONT

CITY           SKY/WX    TMP DP  RH WIND       PRES   REMARKS
FREDERICKSBRG* LGT RAIN  57  57 100 N12G18    29.78F
STAFFORD*      RAIN      56  56 100 NE9       29.84F

$$

NCZ024-NYZ072-PAZ021-071-VAZ022-071-251500-
OTHER REGIONAL OBSERVATIONS

CITY           SKY/WX    TMP DP  RH WIND       PRES   REMARKS
NEW YORK CITY  CLOUDY    51  49  92 E17G29    30.12R
PHILADELPHIA   DRIZZLE   54  52  93 E18G28    30.01R FOG
PITTSBURGH     CLOUDY    52  50  93 E8        29.92F
ROANOKE        CLOUDY    53  51  93 N8        29.79S
RICHMOND       LGT RAIN  60  60 100 NE12      29.67F VSB 3/4
RALEIGH        LGT RAIN  58  57  97 N8        29.63S

$$

ANZ530>537-251500-
MARINE OBSERVATIONS

STATION/POSITION TIME  TEMP    WIND        PRES
                       AIR SEA DIR/SP/G
                 (UTC) (F)     (DEG/KT/KT) (MB)
THOMAS PT LIGHT  1400   56 56   40/ 21/ 25   N/A
BALT KEY BRIDGE  1348   56      40/ 14/ 16 1012.2F
COVE POINT       1348   59      60/ 23/ 26 1009.1F
LEWISETTA        1348   60 61   70/ 20/ 28 1006.0F
SOLOMONS ISLAND  1348   60 60   30/ 19/ 26   N/A
PINEY POINT      1348           70/ 20/ 25   N/A

$$





USA.gov is the U.S. government's official web portal to all federal, state and local government web resources and services.